Regional Weather Roundup
Issued by NWS Newport/Morehead, NC

Current Version | Previous Version | Text Only | Print | Product List | Glossary On
Versions: 1 2 3 4 5 6 7 8 9 10 11 12 13 14 15 16 17 18 19 20 21 22 23 24 25 26 27 28 29 30 31 32 33 34 35 36 37 38 39 40 41 42 43 44 45 46 47 48 49 50
000
ASUS42 KMHX 281522
RWRMHX
WEATHER ROUNDUP FOR EASTERN NORTH CAROLINA
NATIONAL WEATHER SERVICE NEWPORT/MOREHEAD CITY NC
1000 AM EST WED JAN 28 2015

NOTE: "FAIR" INDICATES FEW OR NO CLOUDS BELOW 12,000 FEET
WITH NO SIGNIFICANT WEATHER AND/OR OBSTRUCTIONS TO VISIBILITY

NCZ015>017-031-032-045>047-102-103-281600-
NORTH COAST

CITY           SKY/WX    TMP DP  RH WIND       PRES   REMARKS
EDENTON        SUNNY     33  17  52 NW13G18   30.21R
ELIZABETH CITY SUNNY     33  18  53 NW15      30.19R
KITTY HAWK     MOSUNNY   34  24  67 NW10G21   30.15R
MANTEO         SUNNY     34  23  64 N15G23    30.17R

$$

NCZ045>047-081-094-103-104-281600-
CENTRAL COAST

CITY           SKY/WX    TMP DP  RH WIND       PRES   REMARKS
FRISCO         CLOUDY    35  27  72 N12G23    30.15R
SWANQUARTER    NOT AVBL

$$

NCZ095-097-098-100-101-281600-
SOUTHERN COAST

CITY           SKY/WX    TMP DP  RH WIND       PRES   REMARKS
BEAUFORT       SUNNY     35  21  56 N14       30.18R
CEDAR ISLAND   NOT AVBL
JACKSONVILLE   SUNNY     35  19  52 N15G23    30.20R
PINEY ISLAND     N/A    N/A N/A N/A MISG      30.18R
WILMINGTON     SUNNY     36  17  46 N17G24    30.21R


$$

NCZ011>013-027>030-043-044-078>080-089-090>093-098-281600-
COASTAL PLAIN

CITY           SKY/WX    TMP DP  RH WIND       PRES   REMARKS
AHOSKIE        SUNNY     32   9  38 N12G20    30.23R
CLINTON        SUNNY     35  18  50 N12       30.25R
ELIZABETHTOWN  SUNNY     35  17  48 N5        30.24S
GOLDSBORO      SUNNY     34  21  59 N9        30.22R
GREENVILLE     SUNNY     34  14  44 N16G24    30.24R
HAVELOCK       SUNNY     36  20  52 N15       30.20R
KENANSVILLE    SUNNY     35  18  49 N12G18    30.24R
KINSTON        SUNNY     34  19  55 N14       30.23R
NEW BERN       SUNNY     36  19  50 N16       30.21R
RICHLANDS      SUNNY     36  18  48 N12G20    30.22R
ROCKY MOUNT    SUNNY     34  16  47 N13       30.24R
WASHINGTON     SUNNY     33  16  49 N14G20    30.21R
WHITEVILLE     SUNNY     35  18  50 NE5       30.24R

$$

AMZ130-135-150-152-154-156-158-170-250-252-270-ANZ085-086-088-633-658-670-281600-
MARINE OBSERVATIONS

STATION/POSITION TIME  TEMP    WIND        PRES    WAVE   SWELL
                       AIR SEA DIR/SP/G            HT/PER HT/PER
                 (UTC) (F)     (DEG/KT/KT) (MB)    (FT/S) (FT/S)
CHESAPEAKE LIGHT 1500   30     340/ 23/ 25 1022.1
64 E VA BEACH    1500   34 51  340/ 23/ 29 1019.2   10/13   7/13
DUCK             1500   32 41  350/ 19/ 23 1020.5
2 E DUCK         1500      42                N/A     7/14   3/14
10 NE DUCK       1500      46                N/A     9/13   5/13
OREGON INLET     1500   35 42  340/ 14/ 24 1021.2
13E OREGON INLT  1500      45                N/A    10/13   5/13
HATTERAS CG      1500   35 46   10/ 20/ 27 1021.2
DIAMOND BUOY     1500   39 69  350/ 23/ 29 1019.5    8/12   7/12
17 S OCRACOKE    NOT AVBL
CAPE LOOKOUT     1500   35      10/ 15/ 21 1021.3
BEAUFORT LAB     1500   34 46   10/ 14/ 19 1021.0
27 SE WRIGHTSVLE NOT AVBL
5 SE WRIGHTSVLE  1500   37 53   20/ 19/ 23 1022.6
225 S CAPE HAT   1413   57 71  300/ 19/ 25 1016.7   10/ 8   7/10
41 SE CHARLESTON 1500   41 67  350/ 21/ 27 1022.4    6/ 6   3/12

$$


USA.gov is the U.S. government's official web portal to all federal, state and local government web resources and services.